Flag for U.S.A. Weather past 2 weeks in Galveston, Texas, U.S.A.

Now
85 °F

Scattered clouds.


Feels Like: 95 °F
Forecast: 79 / 84 °F
Wind: 17 mph from East

Location: Scholes Field

Current Time: Sep 20, 2014 at 1:20:23 PM

Latest Report: Sep 20, 2014 at 12:52 PM


Visibility: 10 mi

Pressure: 29.96 "Hg

Humidity: 77%

Dew point: 77 °F

Location of GalvestonLocation

Historic Weather in Galveston — Graph

°F

Galveston temperature yesterday

Maximum temperature yesterday: 82 °F (at 1:52 PM)
Minimum temperature yesterday: 75 °F (at 6:52 AM)
Average temperature yesterday: 79 °F

Past Weeks' High & Low Weather Summary

 TemperatureHumidityPressure
High90 °F (Sep 10, 11:52 AM)100% (Sep 18, 2:01 PM)30.17 "Hg (Sep 18, 2:01 PM)
Low68 °F (Sep 14, 3:52 AM)65% (Sep 5, 10:52 AM)29.85 "Hg (Sep 19, 4:52 AM)
Average81 °F83%29.98 "Hg
* Reported Sep 5 7:52 AM — Sep 20 7:52 AM, Galveston, Weather by CustomWeather, © 2014

Note: Actual official high and low records may vary slightly from our data, if they occured in-between our weather recording intervals... More about our weather records

Advertising

Galveston weather history for previous 24 hours

 ConditionsComfort  
Time TempWeatherWind HumidityBarometerVisibility
7:52 AM
Sep 20
80 °FPartly cloudy.8 mph85%29.93 "Hg10 mi
6:52 AM79 °FPassing clouds.8 mph88%29.91 "Hg10 mi
5:52 AM79 °FPassing clouds.9 mph88%29.90 "Hg10 mi
4:52 AM80 °FPassing clouds.8 mph81%29.89 "Hg10 mi
3:52 AM80 °FPassing clouds.6 mph81%29.90 "Hg10 mi
2:52 AM81 °FClear.12 mph74%29.90 "Hg10 mi
1:52 AM81 °FPassing clouds.13 mph77%29.90 "Hg10 mi
12:52 AM81 °FPassing clouds.14 mph79%29.91 "Hg10 mi
11:52 PM
Sep 19
81 °FPassing clouds.13 mph82%29.92 "Hg10 mi
10:52 PM81 °FPassing clouds.14 mph82%29.92 "Hg10 mi
9:52 PM80 °FClear.12 mph85%29.91 "Hg10 mi
8:52 PM80 °FClear.12 mph81%29.90 "Hg10 mi
7:52 PM80 °FPartly sunny.10 mph81%29.89 "Hg10 mi
6:52 PM80 °FSunny.12 mph85%29.88 "Hg10 mi
5:52 PM81 °FSunny.8 mph82%29.88 "Hg10 mi
4:52 PM80 °FOvercast.7 mph81%29.88 "Hg10 mi
3:52 PM81 °FCloudy.5 mph79%29.89 "Hg10 mi
3:03 PM81 °FBroken clouds.6 mph82%29.90 "Hg10 mi
2:52 PM81 °FMostly cloudy.7 mph82%29.90 "Hg10 mi
1:52 PM82 °FPartly sunny.6 mph79%29.92 "Hg10 mi
Weather by CustomWeather, © 2014

See weather overviewHow to use our weather pages